HUANJING 1A (HJ-1A)

Last updated on Mon Oct 14 2024 00:02:24 GMT+0000 (Coordinated Universal Time)

1 33320U 08041A 24287.51778029 .00004642 00000+0 60427-3 0 9993 2 33320 97.6353 288.7764 0019604 350.2348 9.8481 14.80954525867760
UTC large
Height (km)
Speed (km/s)
/
Latitude / Longitude
Inclination (degrees)
Orbital Period (minutes)
Azimuth
Elevation
Range (km)
Doppler Factor

Next 0 passes for location: London (51.5072 / 0.1276)

Sorry there are no passes over London.